Dewpoint
46 45 43 43 42 41 41 41 42 42 42 41 40 39 37 37 36 36 35 35 34 34
46 44 44 43 42 42 42 41 41 42 41 40 39 38 37 36 35 34 33 33 32 31
46 45 43 42 42 41 41 41 41 41 40 40 38 37 36 34 34 32 32 32 30 29
46 45 43 42 42 41 42 41 41 41 39 38 38 37 35 33 33 31 31 31 29 28
45 45 45 43 42 41 41 42 41 40 39 37 36 36 34 32 32 31 30 30 30 29
42 42 42 42 41 41 41 41 41 40 38 36 35 34 33 32 31 30 29 29 28 28
40 40 40 39 39 40 40 40 39 38 36 35 34 33 31 30 29 28 28 28 27 27
40 39 38 37 37 38 39 38 36 35 34 33 32 31 31 29 29 28 27 27 27 27
38 38 36 35 35 34 34 34 34 34 33 32 32 32 32 31 29 27 27 27 27 27
36 35 34 33 32 32 32 33 33 33 33 32 32 33 32 30 28 27 26 25 24 25
34 34 34 33 31 32 32 32 31 31 32 32 32 32 31 29 27 26 25 25 24 22
34 34 33 32 32 31 30 30 30 30 31 31 31 32 30 27 26 24 24 24 23 21
33 33 32 32 31 31 30 29 29 29 30 31 30 31 29 26 24 22 22 23 24 20
33 32 32 31 29 28 27 27 27 26 27 29 30 30 29 26 24 22 22 22 22 22
Wind_Speed
10 11 14 15 14 13 14 11 8 10 8 8 9 7 5 4 4 4 4 6 5 5
12 14 16 14 11 11 11 10 10 11 11 10 8 8 8 7 6 6 5 7 8 8
13 12 11 8 14 13 11 11 11 12 12 11 10 9 8 6 6 7 6 7 8 7
7 6 6 10 12 14 11 13 14 15 14 13 12 11 10 9 8 8 6 5 9 8
3 3 7 11 12 11 14 10 13 12 13 12 10 9 9 9 9 11 8 6 7 7
3 3 6 7 7 8 9 9 9 12 14 13 13 12 10 10 9 9 9 8 8 6
5 6 6 5 4 5 7 10 11 11 11 10 12 12 12 13 12 10 8 8 9 6
5 5 5 4 1 3 6 8 9 9 9 11 12 12 16 13 13 11 9 7 6 5
8 6 4 3 2 3 4 6 9 10 12 12 10 17 16 16 14 11 11 10 10 11
7 4 2 3 5 5 6 9 9 10 12 10 11 15 16 17 13 12 11 11 9 9
5 4 3 3 4 5 6 9 10 11 12 13 12 17 17 17 13 12 11 10 9 8
1 1 1 2 3 5 8 8 8 10 12 13 13 17 18 15 12 12 12 10 9 8
2 2 3 4 6 4 6 7 9 10 10 12 13 16 16 14 12 13 11 8 8 10
4 4 5 6 4 7 9 9 9 10 9 9 10 14 14 16 12 13 11 10 9 9
Wind_Direction
215 221 222 227 221 224 228 225 211 213 207 205 182 173 168 151 151 153 151 157 165 155
218 220 229 231 223 227 231 231 211 207 205 200 193 179 173 167 168 159 154 145 141 133
229 228 234 226 237 234 237 225 212 207 197 190 188 184 175 167 156 153 153 144 134 124
256 248 231 236 241 239 235 224 215 204 199 198 188 181 172 163 157 155 150 136 134 126
301 248 238 242 248 244 240 222 217 200 197 186 182 173 174 167 158 152 145 138 128 120
334 309 277 269 266 251 241 230 207 194 192 183 177 169 157 142 130 119 115 114 119 100
334 313 298 285 263 247 224 214 204 193 184 167 150 140 130 127 118 105 103 104 107 94
338 328 335 331 281 183 193 189 171 159 141 139 137 140 133 126 122 127 108 82 73 82
353 357 7 18 39 106 117 111 125 129 135 138 120 131 132 133 133 127 124 111 88 71
344 346 19 102 105 118 130 125 123 124 122 123 125 138 136 131 127 129 128 127 121 109
358 5 28 54 102 128 133 135 135 129 125 134 140 142 136 124 124 121 125 129 119 112
1 59 171 174 157 135 135 134 137 136 135 134 147 150 144 129 126 120 118 116 120 128
155 161 195 176 161 149 142 132 124 128 139 152 152 159 151 128 123 123 124 121 133 125
162 165 172 158 138 129 125 124 125 123 120 123 140 149 147 139 136 138 135 138 142 151